�������l�o���
Date,Time,MP-1(��Sv/h),MP-2(��Sv/h),MP-3(��Sv/h),MP-4(��Sv/h),MP-5(��Sv/h),MP-6(��Sv/h),MP-7(��Sv/h),MP-8(��Sv/h),����,����(m/s),���J
2019/04/09,00:00,0.782,1.155,0.795,1.481,1.074,0.443,0.788,0.743,�k�k��,4.3,��
2019/04/09,00:10,0.783,1.154,0.795,1.482,1.072,0.440,0.786,0.743,�k��,3.8,��
2019/04/09,00:20,0.784,1.154,0.797,1.480,1.075,0.442,0.786,0.745,�k�k��,4.9,��
2019/04/09,00:30,0.784,1.156,0.797,1.481,1.074,0.443,0.787,0.743,�k��,5.9,��
2019/04/09,00:40,0.784,1.156,0.798,1.479,1.074,0.442,0.785,0.742,�k��,6.2,��
2019/04/09,00:50,0.783,1.153,0.797,1.478,1.075,0.442,0.786,0.744,�k��,6.2,��
2019/04/09,01:00,0.785,1.154,0.796,1.479,1.073,0.441,0.787,0.743,�k��,5.7,��
2019/04/09,01:10,0.781,1.156,0.797,1.477,1.075,0.440,0.787,0.743,�k��,5.5,��
2019/04/09,01:20,0.782,1.155,0.794,1.479,1.073,0.443,0.785,0.743,�k��,5.1,��
2019/04/09,01:30,0.782,1.155,0.794,1.479,1.072,0.440,0.787,0.743,�k��,5.2,��
2019/04/09,01:40,0.782,1.153,0.795,1.478,1.071,0.441,0.785,0.742,�k��,5.0,��
2019/04/09,01:50,0.781,1.155,0.795,1.478,1.073,0.441,0.785,0.741,�k��,6.4,��
2019/04/09,02:00,0.783,1.152,0.797,1.480,1.070,0.440,0.787,0.743,�k��,6.0,��
2019/04/09,02:10,0.784,1.155,0.797,1.479,1.072,0.441,0.788,0.743,�k�k��,5.9,��
2019/04/09,02:20,0.784,1.154,0.797,1.480,1.074,0.442,0.786,0.743,�k�k��,7.5,��
2019/04/09,02:30,0.782,1.155,0.794,1.476,1.072,0.440,0.787,0.742,�k�k��,7.6,��
2019/04/09,02:40,0.783,1.152,0.795,1.475,1.075,0.443,0.785,0.743,�k��,7.3,��
2019/04/09,02:50,0.782,1.153,0.798,1.478,1.073,0.441,0.787,0.742,�k��,6.6,��
2019/04/09,03:00,0.786,1.151,0.796,1.480,1.073,0.442,0.787,0.744,�k��,6.3,��
2019/04/09,03:10,0.783,1.153,0.795,1.480,1.072,0.440,0.786,0.742,�k��,7.0,��
2019/04/09,03:20,0.785,1.154,0.795,1.480,1.074,0.441,0.787,0.743,�k��,7.3,��
2019/04/09,03:30,0.783,1.156,0.795,1.481,1.072,0.441,0.785,0.744,�k��,7.8,��
2019/04/09,03:40,0.781,1.155,0.794,1.478,1.071,0.442,0.787,0.743,�k��,7.2,��
2019/04/09,03:50,0.782,1.154,0.794,1.478,1.072,0.441,0.787,0.743,�k��,6.5,��
2019/04/09,04:00,0.782,1.152,0.797,1.479,1.071,0.441,0.786,0.742,�k��,5.7,��
2019/04/09,04:10,0.781,1.153,0.796,1.479,1.072,0.440,0.786,0.742,�k��,7.0,��
2019/04/09,04:20,0.780,1.153,0.795,1.479,1.070,0.442,0.785,0.741,�k��,5.2,��
2019/04/09,04:30,0.782,1.154,0.797,1.479,1.072,0.440,0.785,0.743,�k�k��,3.8,��
2019/04/09,04:40,0.781,1.155,0.797,1.476,1.071,0.441,0.786,0.742,�k�k��,4.7,��
2019/04/09,04:50,0.783,1.153,0.796,1.475,1.072,0.440,0.786,0.742,�k��,6.8,��
2019/04/09,05:00,0.783,1.153,0.794,1.479,1.070,0.440,0.786,0.743,�k��,7.4,��
2019/04/09,05:10,0.783,1.154,0.796,1.476,1.073,0.441,0.786,0.743,�k��,6.0,��
2019/04/09,05:20,0.782,1.154,0.795,1.478,1.073,0.441,0.788,0.742,�k��,7.6,��
2019/04/09,05:30,0.784,1.153,0.796,1.479,1.072,0.442,0.785,0.741,�k��,7.4,��
2019/04/09,05:40,0.782,1.149,0.794,1.477,1.071,0.442,0.786,0.742,�k��,8.3,��
2019/04/09,05:50,0.782,1.155,0.797,1.479,1.072,0.441,0.786,0.742,�k��,9.0,��
2019/04/09,06:00,0.783,1.152,0.796,1.478,1.071,0.442,0.785,0.744,�k��,8.4,��
2019/04/09,06:10,0.782,1.151,0.796,1.479,1.074,0.441,0.786,0.744,�k��,10.2,��
2019/04/09,06:20,0.782,1.153,0.795,1.478,1.071,0.440,0.786,0.744,�k��,10.7,��
2019/04/09,06:30,0.783,1.154,0.796,1.479,1.072,0.441,0.786,0.744,�k��,8.8,��
2019/04/09,06:40,0.782,1.155,0.795,1.479,1.072,0.440,0.789,0.742,�k��,8.6,��
2019/04/09,06:50,0.783,1.154,0.795,1.478,1.070,0.439,0.788,0.743,���k��,8.0,��
2019/04/09,07:00,0.781,1.150,0.797,1.479,1.071,0.439,0.787,0.743,���k��,7.4,��
2019/04/09,07:10,0.782,1.153,0.795,1.478,1.071,0.440,0.787,0.743,���k��,7.9,��
2019/04/09,07:20,0.784,1.154,0.796,1.479,1.072,0.440,0.787,0.743,�k��,8.1,��
2019/04/09,07:30,0.782,1.153,0.794,1.478,1.073,0.442,0.788,0.744,���k��,8.6,��
2019/04/09,07:40,0.783,1.154,0.795,1.482,1.072,0.441,0.787,0.744,�k��,10.3,��
2019/04/09,07:50,0.782,1.155,0.795,1.479,1.073,0.441,0.789,0.743,�k��,13.0,��
2019/04/09,08:00,0.785,1.156,0.796,1.479,1.072,0.439,0.789,0.744,�k��,10.5,��
2019/04/09,08:10,0.784,1.153,0.795,1.481,1.072,0.441,0.788,0.745,�k��,10.8,��
2019/04/09,08:20,0.784,1.155,0.796,1.479,1.072,0.438,0.787,0.745,���k��,8.6,��
2019/04/09,08:30,0.783,1.153,0.794,1.481,1.072,0.439,0.786,0.745,�k��,7.9,��
2019/04/09,08:40,0.784,1.155,0.796,1.482,1.073,0.440,0.785,0.744,�k��,9.0,��
2019/04/09,08:50,0.784,1.155,0.796,1.486,1.072,0.440,0.784,0.744,�k��,8.8,��
2019/04/09,09:00,0.786,1.150,0.795,1.484,1.073,0.442,0.784,0.742,�k��,6.0,��
2019/04/09,09:10,0.784,1.150,0.796,1.483,1.075,0.440,0.782,0.742,�k��,7.9,��
2019/04/09,09:20,0.785,1.149,0.797,1.482,1.073,0.440,0.786,0.744,�k��,8.0,��
2019/04/09,09:30,0.784,1.151,0.796,1.481,1.074,0.440,0.785,0.741,�k��,9.1,��
2019/04/09,09:40,0.785,1.149,0.794,1.483,1.075,0.441,0.784,0.742,�k��,10.4,��
2019/04/09,09:50,0.784,1.150,0.797,1.482,1.074,0.442,0.784,0.741,�k��,9.6,��
2019/04/09,10:00,0.785,1.155,0.799,1.482,1.077,0.441,0.783,0.742,�k��,11.3,��
2019/04/09,10:10,0.787,1.151,0.798,1.484,1.076,0.442,0.785,0.741,�k��,10.0,��
2019/04/09,10:20,0.787,1.148,0.797,1.482,1.076,0.442,0.786,0.741,�k��,9.2,��
2019/04/09,10:30,0.785,1.153,0.799,1.482,1.074,0.442,0.785,0.742,�k��,9.6,��
2019/04/09,10:40,0.786,1.152,0.797,1.484,1.076,0.441,0.786,0.740,�k��,14.1,��
2019/04/09,10:50,0.786,1.154,0.798,1.483,1.074,0.442,0.785,0.743,�k��,12.4,��
2019/04/09,11:00,0.786,1.155,0.796,1.481,1.075,0.440,0.786,0.741,�k��,11.0,��
2019/04/09,11:10,0.782,1.154,0.797,1.483,1.073,0.442,0.786,0.741,�k��,13.2,��
2019/04/09,11:20,0.786,1.152,0.797,1.482,1.071,0.442,0.786,0.740,���k��,12.2,��
2019/04/09,11:30,0.786,1.152,0.799,1.485,1.074,0.441,0.784,0.742,�k��,8.0,��
2019/04/09,11:40,0.785,1.154,0.797,1.486,1.071,0.440,0.786,0.741,�k��,10.6,��
2019/04/09,11:50,0.786,1.151,0.795,1.485,1.074,0.439,0.786,0.743,�k��,14.6,��
2019/04/09,12:00,0.787,1.156,0.797,1.483,1.075,0.440,0.785,0.741,�k��,10.7,��
2019/04/09,12:10,0.786,1.153,0.798,1.485,1.073,0.441,0.787,0.741,�k��,11.8,��
2019/04/09,12:20,0.786,1.154,0.796,1.485,1.075,0.441,0.785,0.742,�k�k��,11.3,��
2019/04/09,12:30,0.786,1.156,0.795,1.485,1.073,0.440,0.785,0.742,�k�k��,10.6,��
2019/04/09,12:40,0.785,1.153,0.797,1.485,1.073,0.443,0.786,0.741,�k�k��,11.3,��
2019/04/09,12:50,0.785,1.154,0.797,1.486,1.074,0.441,0.784,0.739,�k�k��,7.4,��
2019/04/09,13:00,0.785,1.152,0.797,1.483,1.076,0.441,0.786,0.741,�k��,9.0,��
2019/04/09,13:10,0.784,1.153,0.796,1.485,1.075,0.443,0.785,0.739,�k��,12.4,��
2019/04/09,13:20,0.783,1.153,0.798,1.484,1.075,0.441,0.785,0.741,�k��,10.5,��
2019/04/09,13:30,0.786,1.152,0.798,1.487,1.073,0.442,0.785,0.744,�k��,10.3,��
2019/04/09,13:40,0.785,1.150,0.796,1.486,1.076,0.444,0.785,0.742,�k��,8.9,��
2019/04/09,13:50,0.784,1.153,0.798,1.483,1.075,0.442,0.789,0.742,�k��,9.3,��
2019/04/09,14:00,0.786,1.152,0.797,1.485,1.076,0.441,0.786,0.741,���k��,10.6,��
2019/04/09,14:10,0.787,1.152,0.794,1.486,1.076,0.442,0.785,0.744,���k��,11.6,��
2019/04/09,14:20,0.786,1.154,0.796,1.487,1.076,0.442,0.786,0.742,�k��,9.4,��
2019/04/09,14:30,0.787,1.151,0.795,1.485,1.076,0.441,0.785,0.740,�k��,12.4,��
2019/04/09,14:40,0.787,1.154,0.796,1.486,1.074,0.440,0.784,0.742,�k��,11.3,��
2019/04/09,14:50,0.785,1.154,0.797,1.484,1.075,0.441,0.785,0.743,�k��,10.5,��
2019/04/09,15:00,0.786,1.157,0.796,1.483,1.075,0.441,0.787,0.741,�k��,11.7,��
2019/04/09,15:10,0.787,1.155,0.795,1.485,1.076,0.442,0.786,0.742,�k��,9.1,��
2019/04/09,15:20,0.786,1.158,0.797,1.484,1.075,0.442,0.784,0.742,�k��,11.6,��
2019/04/09,15:30,0.786,1.159,0.797,1.484,1.074,0.440,0.785,0.741,�k��,12.7,��
2019/04/09,15:40,0.786,1.157,0.797,1.481,1.075,0.443,0.785,0.742,�k��,12.4,��
2019/04/09,15:50,0.784,1.157,0.796,1.486,1.077,0.443,0.786,0.741,�k��,9.8,��
2019/04/09,16:00,0.784,1.157,0.796,1.482,1.075,0.442,0.784,0.742,�k��,11.3,��
2019/04/09,16:10,0.785,1.160,0.797,1.482,1.079,0.442,0.786,0.742,�k��,8.0,��
2019/04/09,16:20,0.785,1.158,0.797,1.483,1.077,0.443,0.785,0.742,�k��,13.5,��
2019/04/09,16:30,0.785,1.158,0.794,1.482,1.076,0.442,0.784,0.740,���k��,10.8,��
2019/04/09,16:40,0.786,1.157,0.797,1.481,1.076,0.441,0.783,0.744,���k��,12.7,��
2019/04/09,16:50,0.785,1.160,0.798,1.480,1.077,0.444,0.785,0.742,���k��,9.6,��
2019/04/09,17:00,0.785,1.159,0.796,1.483,1.074,0.442,0.784,0.744,���k��,11.3,��
2019/04/09,17:10,0.784,1.159,0.796,1.484,1.076,0.441,0.786,0.743,���k��,11.6,��
2019/04/09,17:20,0.787,1.161,0.799,1.483,1.076,0.441,0.787,0.746,���k��,11.0,��
2019/04/09,17:30,0.785,1.161,0.797,1.483,1.074,0.443,0.785,0.745,���k��,12.2,��
2019/04/09,17:40,0.786,1.161,0.798,1.485,1.074,0.442,0.783,0.743,���k��,10.2,��
2019/04/09,17:50,0.785,1.162,0.799,1.484,1.073,0.441,0.783,0.745,�k��,11.3,��
2019/04/09,18:00,0.787,1.161,0.799,1.485,1.076,0.442,0.782,0.743,�k��,9.9,��
2019/04/09,18:10,0.787,1.161,0.798,1.485,1.075,0.442,0.783,0.746,�k��,9.1,��
2019/04/09,18:20,0.787,1.161,0.797,1.487,1.073,0.442,0.785,0.743,�k��,9.1,��
2019/04/09,18:30,0.786,1.162,0.799,1.489,1.079,0.442,0.783,0.743,�k��,10.3,��
2019/04/09,18:40,0.786,1.158,0.800,1.487,1.078,0.443,0.785,0.743,�k��,7.7,��
2019/04/09,18:50,0.786,1.159,0.798,1.488,1.079,0.442,0.786,0.743,�k��,8.4,��
2019/04/09,19:00,0.785,1.159,0.798,1.487,1.077,0.441,0.785,0.744,�k��,8.0,��
2019/04/09,19:10,0.784,1.160,0.799,1.487,1.078,0.441,0.785,0.743,�k��,8.1,��
2019/04/09,19:20,0.787,1.162,0.798,1.486,1.076,0.442,0.786,0.744,�k��,7.8,��
2019/04/09,19:30,0.785,1.160,0.799,1.484,1.076,0.441,0.787,0.744,�k��,6.1,��
2019/04/09,19:40,0.784,1.158,0.797,1.486,1.077,0.442,0.786,0.744,�k��,7.3,��
2019/04/09,19:50,0.784,1.160,0.799,1.488,1.078,0.442,0.787,0.743,�k��,6.0,��
2019/04/09,20:00,0.786,1.161,0.795,1.485,1.076,0.442,0.788,0.742,�k��,5.6,��
2019/04/09,20:10,0.786,1.159,0.798,1.485,1.075,0.441,0.786,0.744,�k��,5.6,��
2019/04/09,20:20,0.785,1.159,0.798,1.485,1.076,0.441,0.786,0.744,�k��,5.4,��
2019/04/09,20:30,0.785,1.156,0.798,1.487,1.074,0.443,0.786,0.742,�k��,5.3,��
2019/04/09,20:40,0.785,1.161,0.800,1.485,1.075,0.440,0.785,0.745,�k��,3.8,��
2019/04/09,20:50,0.786,1.156,0.798,1.485,1.073,0.441,0.786,0.741,�k��,4.1,��
2019/04/09,21:00,0.787,1.156,0.796,1.483,1.077,0.442,0.786,0.744,�k��,4.6,��
2019/04/09,21:10,0.786,1.159,0.797,1.484,1.077,0.442,0.785,0.743,�k��,4.2,��
2019/04/09,21:20,0.784,1.158,0.798,1.486,1.077,0.441,0.786,0.743,���k��,4.1,��
2019/04/09,21:30,0.784,1.157,0.796,1.485,1.076,0.440,0.785,0.742,���k��,5.2,��
2019/04/09,21:40,0.786,1.158,0.798,1.485,1.076,0.441,0.784,0.742,��,4.8,��
2019/04/09,21:50,0.783,1.157,0.796,1.486,1.076,0.440,0.785,0.743,��,4.7,��
2019/04/09,22:00,0.786,1.159,0.797,1.486,1.073,0.440,0.784,0.742,��,3.9,��
2019/04/09,22:10,0.785,1.157,0.797,1.484,1.075,0.440,0.784,0.742,���쐼,3.2,��
2019/04/09,22:20,0.784,1.159,0.796,1.485,1.074,0.440,0.785,0.743,���쐼,4.2,��
2019/04/09,22:30,0.785,1.158,0.798,1.482,1.073,0.441,0.786,0.741,���쐼,5.2,��
2019/04/09,22:40,0.783,1.160,0.797,1.485,1.075,0.441,0.785,0.744,���쐼,4.9,��
2019/04/09,22:50,0.781,1.159,0.795,1.484,1.075,0.440,0.783,0.741,�쐼,3.8,��
2019/04/09,23:00,0.784,1.158,0.796,1.481,1.073,0.439,0.785,0.743,�쐼,3.3,��
2019/04/09,23:10,0.784,1.156,0.796,1.482,1.077,0.441,0.784,0.743,�쐼,2.6,��
2019/04/09,23:20,0.783,1.157,0.798,1.484,1.075,0.441,0.783,0.743,��쓌,1.9,��
2019/04/09,23:30,0.785,1.157,0.797,1.482,1.072,0.442,0.785,0.742,-,CALM,��
2019/04/09,23:40,0.785,1.159,0.797,1.484,1.076,0.441,0.785,0.742,-,CALM,��
2019/04/09,23:50,0.784,1.157,0.796,1.484,1.073,0.440,0.785,0.742,�k�k��,1.2,��
